www.pogodaiklimat.ru

Погода и климат >> Архив погоды >> Испания >> Жерона


ПОГОДА в Жероне

  • Прогноз погоды в Жероне
  • Монитор погоды в Жероне

АРХИВ ПОГОДЫ в Жероне

Время (UTC), дата Ветер
(напр.,м/с)
 
Видим.   Явления Облачность Т
(С)
Тd
(С)
f
(%)
Тe
(С)
Тes
(С)
Комфортность P
(гПа)
Po
(гПа)
Тmin
(С)
Tmax
(С)
R
(мм)
R24
(мм)
S
(см)
04 12.06 СВ 2 н/о в посл. час осадки н/о +8.6 +8.6 100 +6 +6 1013.7 998.1
05 12.06 штиль 0 н/о осадки н/о +8.6 +8.6 100 +8 +8 1014.1 998.5
06 12.06 штиль 0 н/о осадки н/о +9.5 +9.5 100 +9 +9 1014.7 999.1 +8.5 0.0
07 12.06 Ю 1 н/о осадки н/о +12.4 +12.1 98 +13 +13 1015.0 999.6
08 12.06 штиль 0 н/о н/о +14.7 +12.0 84 +14 +14 1015.1 999.8
09 12.06 ЮВ 2 н/о н/о +17.2 +9.2 59 +18 +18 1014.9 999.7 0.0
10 12.06 Ю 3 н/о н/о +19.1 +10.4 57 +20 +20 1014.5 999.4
11 12.06 Ю 4 н/о н/о +20.6 +10.1 51 +22 +22 комфорт 1014.0 999.0
12 12.06 Ю 5 н/о н/о +19.8 +10.0 53 +21 +21 комфорт 1013.7 998.7
13 12.06 Ю 7 н/о н/о +21.4 +11.5 53 +23 +23 комфорт 1013.1 998.2
14 12.06 Ю 7 н/о н/о +21.6 +11.6 53 +24 +24 комфорт 1012.8 997.9
15 12.06 Ю 8 н/о н/о +21.5 +11.6 53 +24 +24 комфорт 1012.7 997.8
16 12.06 Ю 8 н/о н/о +20.9 +11.9 56 +23 +23 комфорт 1012.5 997.5
17 12.06 Ю 7 н/о н/о +20.0 +11.7 59 +21 +21 комфорт 1012.5 997.5
18 12.06 Ю 6 н/о н/о +19.0 +11.3 61 +19 +19 1013.1 998.0 +21.8
19 12.06 Ю 4 н/о н/о +16.6 +11.7 73 +16 +16 1013.8 998.6
20 12.06 Ю 4 н/о н/о +15.3 +12.2 82 +14 +14 1014.6 999.3
21 12.06 ЮВ 2 25 км ясно +14.4 +12.3 87 +14 +14 1015.3 1000.0
22 12.06 ЮЗ 1 н/о н/о +12.9 +11.5 91 +13 +13 1015.6 1000.2
23 12.06 В 1 н/о н/о +11.5 +10.7 95 +11 +11 1015.6 1000.1
00 13.06 С 2 10 км ясно +11.6 +11.0 96 +10 +10 1015.3 999.8
01 13.06 Ю 1 н/о н/о +10.3 +9.5 95 +11 +11 1014.9 999.4
02 13.06 СЗ 3 н/о н/о +10.2 +9.7 97 +8 +8 1014.7 999.2
03 13.06 Ю 1 н/о н/о +9.1 +8.3 95 +8 +8 1014.7 999.1
04 13.06 штиль 0 н/о н/о +8.7 +8.4 98 +8 +8 1014.9 999.3
05 13.06 С 2 н/о н/о +10.0 +9.5 97 +9 +9 1014.9 999.3
06 13.06 штиль 0 50 км ясно +13.7 +11.6 87 +13 +16 1014.6 999.3 +8.5
07 13.06 Ю 1 н/о н/о +16.0 +12.4 79 +17 +17 1014.8 999.6
08 13.06 Ю 2 н/о н/о +18.5 +12.0 66 +20 +20 1014.6 999.5
09 13.06 Ю 3 30 км ясно +21.3 +11.7 54 +23 +35 комфорт 1014.6 999.6
10 13.06 Ю 3 н/о н/о +23.3 +6.8 35 +24 +24 комфорт 1014.0 999.1
11 13.06 Ю 3 н/о н/о +24.2 +8.5 37 +25 +25 комфорт 1013.6 998.8
12 13.06 Ю 4 25 км 6/1 600 м
[Cu hum Ac und Ci fib]
+25.2 +8.9 36 +26 +35 жарко 1013.2 998.4
13 13.06 ЮВ 4 н/о н/о +25.7 +7.5 31 +26 +26 жарко 1012.4 997.7
14 13.06 ЮВ 5 н/о н/о +24.8 +6.1 30 +25 +25 комфорт 1013.2 998.4
15 13.06 ЮВ 5 н/о н/о +22.3 +6.2 35 +23 +23 комфорт 1012.6 997.7
16 13.06 ЮВ 5 н/о н/о +23.5 +0.7 22 +23 +23 комфорт 1012.4 997.5
17 13.06 ЮВ 4 н/о н/о +22.8 +2.4 26 +22 +22 комфорт 1012.3 997.4
18 13.06 ЮВ 3 30 км 5/1 1500 м
[Cu hum Ac cuf Ci fib]
+20.7 +5.6 37 +22 +23 комфорт 1012.6 997.6 +26.0
19 13.06 штиль 0 н/о н/о +19.3 +7.8 47 +20 +20 1012.3 997.3
20 13.06 С 3 н/о н/о +17.7 +7.9 53 +18 +18 1012.5 997.4
21 13.06 СВ 2 30 км 4/1 2000 м
[Cu hum Ac cuf]
+15.8 +9.6 67 +16 +16 1013.5 998.3
22 13.06 С 1 н/о н/о +14.9 +10.1 73 +15 +15 1013.5 998.2
23 13.06 С 3 н/о н/о +14.8 +7.8 63 +14 +14 1013.6 998.3
00 14.06 С 3 н/о н/о +14.5 +8.0 65 +14 +14 1012.6 997.3
01 14.06 штиль 0 н/о н/о +14.6 +8.4 66 +14 +14 1011.7 996.4
02 14.06 СВ 4 н/о н/о +13.3 +8.1 71 +12 +12 1010.5 995.2
03 14.06 СВ 4 2000 м 5/5 1000 м
[]
+13.1 +9.2 77 +11 +11 1010.4 995.1 0.0
04 14.06 С 6 н/о н/о +15.8 +4.7 48 +15 +15 1009.8 994.6
05 14.06 С 5 н/о н/о +15.8 +7.9 59 +15 +15 1009.6 994.4
06 14.06 С 7 н/о н/о +18.0 +10.5 62 +17 +17 1008.5 993.5 +13.1
07 14.06 С 7 н/о н/о +19.7 +11.7 60 +21 +21 комфорт 1008.9 993.9
08 14.06 С 8 н/о н/о +21.5 +12.5 57 +24 +24 комфорт 1009.4 994.5
09 14.06 СВ 6 н/о н/о +22.9 +12.4 52 +26 +26 жарко 1009.0 994.2
10 14.06 СВ 9 н/о н/о +21.8 +12.4 55 +24 +24 комфорт 1006.9 992.1
11 14.06 СВ 5 н/о н/о +24.1 +12.3 48 +26 +26 жарко 1008.3 993.6
12 14.06 СВ 4 н/о н/о +24.2 +12.4 48 +26 +26 жарко 1008.3 993.6
13 14.06 СВ 10 н/о н/о +24.3 +12.2 47 +26 +26 жарко 1005.2 990.5
14 14.06 СВ 4 н/о н/о +26.7 +12.3 41 +28 +28 жарко 1007.5 992.9
15 14.06 Ю 5 н/о н/о +27.5 +13.7 43 +30 +30 жарко 1007.3 992.8
16 14.06 Ю 6 н/о н/о +26.6 +15.2 50 +29 +29 жарко 1007.0 992.4
17 14.06 Ю 5 н/о н/о +26.0 +15.2 51 +29 +29 душно 1007.6 993.0
18 14.06 ЮВ 3 15 км 1/1 2000 м
[Cu hum]
+25.1 +15.1 54 +28 +29 жарко 1008.8 994.1 +27.6
19 14.06 В 3 н/о н/о +22.6 +14.7 61 +26 +26 жарко 1009.9 995.1
20 14.06 ЮВ 2 н/о н/о +20.4 +14.5 69 +24 +24 комфорт 1011.0 996.1
21 14.06 СВ 2 н/о н/о +18.3 +14.4 78 +19 +19 1012.5 997.4
22 14.06 штиль 0 н/о н/о +17.4 +14.2 81 +17 +17 1013.1 998.0
23 14.06 штиль 0 н/о н/о +16.2 +13.5 84 +16 +16 1013.4 998.2
00 15.06 СВ 1 н/о н/о +14.9 +13.1 89 +15 +15 1013.5 998.2
01 15.06 Ю 1 н/о н/о +15.2 +12.7 85 +16 +16 1013.5 998.3
02 15.06 С 2 н/о н/о +13.7 +12.4 92 +13 +13 1013.6 998.3
03 15.06 СЗ 1 н/о н/о +14.8 +12.3 85 +15 +15 1013.8 998.5
04 15.06 С 3 н/о н/о +15.9 +13.4 85 +15 +15 1013.9 998.7
05 15.06 С 2 н/о н/о +16.3 +13.6 84 +17 +17 1014.4 999.2
06 15.06 СВ 2 н/о н/о +18.9 +15.6 81 +21 +21 комфорт 1015.0 999.9 +13.6
07 15.06 СВ 3 н/о н/о +20.4 +14.7 70 +23 +23 комфорт 1015.0 1000.0
08 15.06 СВ 2 н/о н/о +22.2 +15.4 65 +26 +26 душно 1015.6 1000.7
09 15.06 СВ 4 35 км 5/5 1000 м
[Cu med, cong Ac trans]
+22.0 +15.7 67 +26 +30 душно 1015.6 1000.7
10 15.06 СВ 3 н/о н/о +24.0 +15.8 60 +27 +27 жарко 1015.5 1000.7
11 15.06 В 3 н/о н/о +25.2 +15.6 55 +28 +28 жарко 1015.5 1000.7
12 15.06 В 3 30 км 5/5 1000 м
[Cu med, cong Ac trans]
+26.2 +15.6 52 +29 +37 жарко 1015.2 1000.5
13 15.06 ЮВ 4 н/о н/о +25.9 +15.5 53 +29 +29 душно 1014.8 1000.1
14 15.06 ЮВ 4 н/о н/о +25.8 +15.9 54 +29 +29 душно 1014.9 1000.2
15 15.06 Ю 5 30 км 8/8 1000 м
[Sc diur, vesp]
+25.0 +15.3 55 +28 +29 жарко 1015.4 1000.6
16 15.06 ЮВ 4 н/о н/о +23.6 +14.8 58 +26 +26 жарко 1015.8 1000.9
17 15.06 Ю 3 н/о н/о +22.9 +14.7 60 +27 +27 душно 1016.2 1001.3
18 15.06 ЮЗ 3 30 км 9/9 1500 м
[Sc As op]
+21.7 +15.1 66 +25 +25 комфорт 1016.8 1001.8 +27.6
19 15.06 ЮЗ 3 н/о н/о +20.3 +14.9 71 +23 +23 комфорт 1017.5 1002.5
20 15.06 В 2 н/о н/о +18.5 +12.3 67 +20 +20 1018.4 1003.2
21 15.06 В 2 н/о н/о +16.1 +11.3 73 +16 +16 1019.4 1004.1
22 15.06 СЗ 2 н/о н/о +15.5 +11.1 75 +16 +16 1019.7 1004.4
23 15.06 СЗ 2 н/о н/о +15.5 +11.1 75 +16 +16 1019.9 1004.6
00 16.06 С 1 н/о н/о +13.7 +10.9 83 +14 +14 1020.1 1004.7
01 16.06 штиль 0 н/о н/о +13.0 +10.9 87 +13 +13 1019.8 1004.3
02 16.06 штиль 0 н/о н/о +12.3 +10.7 90 +12 +12 1019.5 1004.0
03 16.06 Ю 1 н/о н/о +11.7 +10.6 93 +11 +11 1019.6 1004.1
04 16.06 штиль 0 н/о н/о +11.2 +10.2 94 +10 +10 1019.6 1004.0
05 16.06 СВ 1 н/о н/о +12.1 +11.3 95 +12 +12 1019.5 1004.0
06 16.06 штиль 0 н/о н/о +16.6 +12.7 78 +17 +17 1019.8 1004.5 +11.1
07 16.06 штиль 0 н/о н/о +20.0 +13.0 64 +22 +22 комфорт 1020.0 1004.9
08 16.06 СВ 3 н/о н/о +21.7 +10.8 50 +24 +24 комфорт 1019.8 1004.8
09 16.06 ЮВ 2 20 км 3/3 600 м
[Cu hum As op]
+23.9 +10.6 43 +25 +34 комфорт 1019.4 1004.5
10 16.06 Ю 2 н/о н/о +25.1 +11.6 43 +27 +27 жарко 1018.8 1004.0
11 16.06 Ю 3 н/о н/о +26.4 +12.6 42 +28 +28 жарко 1018.3 1003.5
12 16.06 Ю 5 н/о н/о +27.6 +12.7 40 +29 +29 жарко 1017.6 1002.9
13 16.06 Ю 7 н/о н/о +26.6 +13.1 43 +28 +28 жарко 1017.5 1002.8
14 16.06 Ю 6 н/о н/о +26.6 +12.9 43 +28 +28 жарко 1016.8 1002.1
15 16.06 Ю 5 15 км 1/1 1500 м
[Cu hum Ci fib]
+26.5 +13.6 45 +29 +34 жарко 1016.2 1001.5
16 16.06 Ю 6 н/о н/о +25.6 +12.4 44 +27 +27 жарко 1016.1 1001.3
17 16.06 Ю 5 н/о н/о +23.5 +13.9 55 +26 +26 жарко 1016.4 1001.5
18 16.06 Ю 4 40 км 9/0
[Ac trans Ci sp]
+22.1 +14.2 61 +25 +26 комфорт 1016.3 1001.4 +27.7
19 16.06 Ю 3 н/о н/о +20.3 +14.0 67 +23 +23 комфорт 1016.5 1001.5
20 16.06 ЮЗ 1 н/о н/о +18.5 +13.4 72 +20 +20 1016.6 1001.5
21 16.06 штиль 0 н/о н/о +17.3 +13.2 77 +17 +17 1017.0 1001.8
22 16.06 ЮЗ 2 н/о н/о +16.0 +12.9 82 +16 +16 1017.1 1001.8
23 16.06 С 1 н/о н/о +15.3 +13.0 86 +17 +17 1016.8 1001.5
00 17.06 штиль 0 15 км н/о +14.0 +12.0 88 +14 +14 1016.5 1001.1
01 17.06 штиль 0 н/о н/о +13.6 +12.0 90 +13 +13 1016.2 1000.8
02 17.06 СЗ 1 н/о н/о +13.6 +11.9 89 +14 +14 1016.2 1000.8
03 17.06 СВ 2 15 км н/о +12.7 +11.6 93 +12 +12 1016.1 1000.7
04 17.06 СВ 1 н/о н/о +12.2 +11.6 96 +13 +13 1016.6 1001.1
05 17.06 СВ 1 н/о н/о +13.8 +12.7 93 +14 +14 1016.7 1001.3
06 17.06 ЮЗ 1 60 км ясно +17.1 +13.6 80 +18 +20 1016.8 1001.6 +12.0
07 17.06 ЮЗ 1 н/о н/о +20.9 +14.8 68 +25 +25 комфорт 1016.8 1001.8
08 17.06 ЮВ 1 н/о н/о +25.0 +12.5 46 +27 +27 жарко 1016.2 1001.4
09 17.06 ЮВ 2 н/о н/о +27.0 +12.4 40 +28 +28 жарко 1015.5 1000.8
10 17.06 Ю 2 н/о н/о +28.6 +12.1 36 +30 +30 жарко 1015.1 1000.5
11 17.06 Ю 4 н/о н/о +30.2 +11.9 32 +31 +31 жарко 1014.7 1000.2
12 17.06 Ю 5 н/о н/о +30.9 +11.3 30 +31 +31 жарко 1014.5 1000.0
13 17.06 Ю 6 30 км 1/1 1500 м
[Cu Sc]
+30.1 +11.7 32 +31 +38 жарко 1014.4 999.9
14 17.06 Ю 7 н/о н/о +30.7 +8.6 25 +30 +30 жарко 1013.8 999.3
15 17.06 Ю 6 н/о н/о +28.6 +11.3 34 +29 +29 жарко 1013.9 999.3
16 17.06 Ю 6 н/о н/о +27.7 +11.7 37 +29 +29 жарко 1013.6 999.0
17 17.06 Ю 5 н/о н/о +26.5 +13.3 44 +28 +28 жарко 1013.7 999.0
18 17.06 Ю 4 н/о н/о +24.8 +15.5 56 +28 +28 жарко 1013.9 999.1 +30.9
19 17.06 Ю 4 н/о н/о +22.3 +15.2 64 +26 +26 жарко 1014.3 999.4
20 17.06 Ю 4 н/о н/о +19.8 +15.2 75 +22 +22 комфорт 1014.7 999.7
21 17.06 ЮЗ 2 н/о н/о +18.4 +15.1 81 +20 +20 1015.2 1000.1
22 17.06 штиль 0 н/о н/о +16.7 +14.5 87 +17 +17 1015.3 1000.1
23 17.06 З 3 н/о н/о +15.6 +14.1 91 +15 +15 1015.1 999.9
00 18.06 ЮЗ 1 н/о н/о +15.0 +13.7 92 +16 +16 1014.8 999.5
01 18.06 штиль 0 н/о н/о +14.2 +12.9 92 +14 +14 1014.3 999.0
02 18.06 З 3 н/о н/о +12.9 +12.0 94 +12 +12 1014.3 998.9
03 18.06 ЮЗ 2 н/о н/о +12.9 +12.3 96 +12 +12 1013.8 998.4
04 18.06 ЮЗ 1 н/о н/о +12.1 +11.3 95 +12 +12 1013.7 998.3
05 18.06 штиль 0 н/о н/о +14.9 +13.3 90 +15 +15 1013.7 998.4
06 18.06 штиль 0 30 км 4/1 1500 м
[Cu Sc Ac As Cs]
+15.4 +12.7 84 +15 +17 1013.5 998.3 +11.8
07 18.06 Ю 1 20 км 8/1 1000 м
[Cu hum Ac und Cc]
+19.5 +12.1 62 +22 +25 комфорт 1013.6 998.6
08 18.06 Ю 2 н/о н/о +24.9 +9.7 38 +26 +26 жарко 1013.4 998.6
09 18.06 ЮЗ 4 15 км 5/0
[Ac cast Cc]
+28.5 +9.7 31 +29 +36 жарко 1012.8 998.2
10 18.06 Ю 7 н/о н/о +31.0 +4.7 19 +29 +29 жарко 1012.5 998.0
11 18.06 Ю 9 н/о н/о +31.5 +9.1 25 +31 +31 жарко 1012.1 997.6
12 18.06 Ю 10 н/о н/о +30.8 +8.6 25 +30 +30 жарко 1011.7 997.2
13 18.06 Ю 10 н/о н/о +30.7 +10.0 28 +30 +30 жарко 1011.4 996.9
14 18.06 Ю 11 н/о н/о +30.3 +7.9 25 +29 +29 жарко 1011.2 996.7
15 18.06 Ю 11 15 км 4/1 1000 м
[Cu med, cong Ac As Ci sp]
+30.2 +8.0 25 +29 +29 жарко 1010.9 996.4
16 18.06 Ю 11 н/о н/о +29.8 +6.3 23 +29 +29 жарко 1010.5 996.0
17 18.06 Ю 10 н/о н/о +28.7 +6.3 24 +28 +28 жарко 1010.7 996.1
18 18.06 ЮЗ 7 15 км 3/1 1500 м
[Cu med, cong Ac cast Ci fib]
+26.3 +6.3 28 +26 +26 жарко 1011.0 996.3 +32.1
19 18.06 Ю 3 н/о н/о +24.2 +8.2 36 +25 +25 комфорт 1011.5 996.7
20 18.06 Ю 3 н/о н/о +21.1 +12.8 59 +23 +23 комфорт 1012.3 997.4
21 18.06 ЮВ 3 н/о н/о +19.5 +14.1 71 +22 +22 комфорт 1012.9 997.9
22 18.06 Ю 4 н/о н/о +18.1 +13.2 73 +18 +18 1013.1 998.0
23 18.06 штиль 0 н/о н/о +17.0 +11.9 72 +17 +17 1012.6 997.5
00 19.06 штиль 0 н/о н/о +16.4 +10.9 70 +16 +16 1012.3 997.1
01 19.06 штиль 0 н/о н/о +15.4 +10.5 73 +15 +15 1011.8 996.6
02 19.06 Ю 2 н/о н/о +15.0 +9.8 71 +15 +15 1011.3 996.1
03 19.06 ЮЗ 1 н/о н/о +13.6 +9.4 76 +14 +14 1011.0 995.7
04 19.06 С 2 н/о н/о +15.7 +9.4 66 +16 +16 1010.9 995.7

 

Местоположение метеостанции Жерона (Испания): широта 41.90 долгота 2.77 высота над уровнем моря 129 м.

В архиве по умолчанию представлена погода в Жероне за последнюю неделю. Архивные данные за месяц целиком и за предыдущие месяцы, начиная с января 2011 года, Вы можете получить, выбрав интересующий диапазон дат из раскрывающегося списка и нажав кнопку "Ввод!".


*Определитесь, кто Вы:
робот инопланетянин человек

Внимание! Время в таблицах - всемирное. Для получения местного времени необходимо прибавить поправку, которая равна 1 ч.

Смотрите также архив погоды в соседних городах и на ближайших метеорологических станциях:

Погода в Поркересе (Испания) (22 км)
Погода в Санта-Сусанне (Испания) (28 км)
Погода в Ареньс-де-Маре (Испания) (39 км)
Погода в Риполе (Испания) (57 км)
Погода в Барселоне - CMT (Испания) (74 км)
Погода на Мысе Беар (Франция) (75 км)
Погода в Манресе (Испания) (80 км)
Погода в Ла-Молине (Испания) (84 км)
Погода в Барселоне (Испания) (90 км)
Погода в Перпиньяне (Франция) (93 км)

Пояснения к столбцам:

Ветер - указаны скорость ветра в м/с - средняя за 10 мин, порывы в срок и между сроками (в фигурных скобках) и направление, откуда дует ветер: С - северный, СВ - северо-восточный, В - восточный, ЮВ - юго-восточный, Ю - южный, ЮЗ - юго-западный, З - западный, СЗ - северо-западный.
Видимость - горизонтальная дальность видимости в метрах или километрах. При видимости от 1 до 10 км при отсутствии осадков обычно наблюдается дымка, при ухудшении видимости до 1 км и менее - туман. В сухую погоду видимость может ухудшаться дымом, пылью или мглою.
Явления - указаны атмосферные явления, наблюдавшиеся в срок или в последний час перед сроком; фигурными скобками обозначены явления, наблюдавшиеся между сроками (за 1-3 часа до срока); квадратными скобками обозначены град или гололедные отложения с указанием их диаметра в мм.
Облачность - указаны через наклонную черту общая и нижняя облачность в баллах и высота нижней границы облаков в метрах; квадратными скобками обозначены формы облаков: Ci - перистые, Cs - перисто-слоистые, Cc - перисто-кучевые, Ac - высококучевые, As - высокослоистые, Sc - слоисто-кучевые, Ns - слоисто-дождевые, Cu - кучевые, Cb - кучево-дождевые. Подробнее классификацию облаков см. в Атласе облаков (PDF).
T - Температура воздуха - температура, измеренная на высоте 2 м над землей.
Td - Температура точки росы - температура, при понижении до которой содержащийся в воздухе водяной пар достигнет насыщения.
f - Относительная влажность воздуха - влажноcть воздуха, измеренная на высоте 2 м над землей.
Te - Эффективная температура - температура, которую ощущает одетый по сезону человек в тени. Характеристика душности погоды. При расчете учитывается влияние влажности воздуха и скорости ветра на теплоощущения человека.
Tes - Эффективная температура на солнце - температура, которую ощущает человек, с поправкой на солнечный нагрев. Характеристика знойности погоды. Зависит от высоты солнца над горизонтом, облачности и скорости ветра. Ночью, в пасмурную погоду, а также при ветре 12 м/с и более поправка равна нулю.
P - Атмосферное давление - приведенное к уровню моря атмосферное давление.
Po - Атмосферное давление - измеренное на уровне метеостанции атмосферное давление.
Tmin - Минимальная температура - минимум температуры воздуха на высоте 2 м над землей.
Tmax - Максимальная температура - максимум температуры воздуха на высоте 2 м над землей.
R - Количество осадков - Количество выпавших осадков за период времени, мм. При наведении курсора мыши на число - период времени, за который выпало указанное количество осадков.
R24 - Количество осадков - Количество выпавших осадков за 24 часа, мм.
S - Снежный покров - Высота снежного покрова, см. При наведении курсора мыши на число - состояние снежного покрова и степень покрытия местности в баллах.